Alcoa, TN

12:07 AM EST on December 04, 2016 (GMT -0500)
McGhee Tyson

Weather History for KTYS - July, 2013

Change the Weather History Date:

Saturday, July 13, 2013

  Actual Average Record
Temperature  
Mean Temperature 76 °F 79 °F  
Max Temperature 84 °F 88 °F 100 °F (1936)
Min Temperature 67 °F 69 °F 55 °F (1918)
Degree Days  
Heating Degree Days 0 0  
Month to date heating degree days 0 0  
Since 1 June heating degree days 0 4  
Since 1 July heating degree days 0 0  
Cooling Degree Days 11 14  
Month to date cooling degree days 134 172  
Year to date cooling degree days 610 639  
Since 1 June cooling degree days 454 477  
Growing Degree Days 25 (Base 50)    
Moisture  
Dew Point 66 °F    
Average Humidity 73    
Maximum Humidity 90    
Minimum Humidity 55    
Precipitation  
Precipitation 0.46 in 0.17 in 2.95 in (1990)
Month to date precipitation 5.74 2.16  
Year to date precipitation 46.54 27.41  
Snow  
Snow 0.00 in 0.00 in - ()
Month to date snowfall 0.0 0.0  
Since 1 June snowfall 0.0 0.0  
Since 1 July snowfall 0.0 0.0  
Snow Depth 0.00 in    
Sea Level Pressure  
Sea Level Pressure 30.01 in    
Wind  
Wind Speed 4 mph (North)    
Max Wind Speed 14 mph    
Max Gust Speed 21 mph    
Visibility 8 miles    
Events Rain , Thunderstorm    
T = Trace of Precipitation, MM = Missing Value Source: NWS Daily Summary

Daily Weather History Graph

Daily Weather History Graph

Search for Another Location

Airport or City:

Trip Planner

Search our weather history database for the weather conditions in past years. The results will help you decide how hot, cold, wet, or windy it might be!

Date:

Astronomy

Jul. 13, 2013 Rise Set
Actual Time 6:30 AM EDT 8:53 PM EDT
Civil Twilight 6:00 AM EDT 9:22 PM EDT
Nautical Twilight 5:24 AM EDT 9:58 PM EDT
Astronomical Twilight 4:44 AM EDT 10:38 PM EDT
Moon 11:33 AM EDT (7/13) 11:46 PM EDT (7/13)
Length of Visible Light 15h 21m
Length of Day
14h 23m
Waxing Crescent, 25% of the Moon is Illuminated
Jul 13
Waxing Crescent
Jul 15
First Quarter
Jul 22
Full
Jul 29
Last Quarter
Aug 6
New

Hourly Weather History & Observations

Time (EDT) Temp. Heat Index Dew Point Humidity Pressure Visibility Wind Dir Wind Speed Gust Speed Precip Events Conditions
12:53 AM 71.1 °F - 63.0 °F 75% 29.96 in 10.0 mi NNE 6.9 mph - N/A   Mostly Cloudy
1:53 AM 70.0 °F - 63.0 °F 78% 29.96 in 10.0 mi NE 4.6 mph - N/A   Mostly Cloudy
2:53 AM 69.1 °F - 63.0 °F 81% 29.94 in 10.0 mi Calm Calm - N/A   Mostly Cloudy
3:53 AM 69.1 °F - 64.0 °F 84% 29.93 in 10.0 mi Calm Calm - N/A   Mostly Cloudy
4:53 AM 69.1 °F - 63.0 °F 81% 29.94 in 10.0 mi NNE 3.5 mph - N/A   Mostly Cloudy
5:53 AM 69.1 °F - 63.0 °F 81% 29.96 in 10.0 mi NNE 3.5 mph - N/A   Mostly Cloudy
6:53 AM 68.0 °F - 64.0 °F 87% 29.98 in 8.0 mi NE 3.5 mph - N/A   Mostly Cloudy
7:53 AM 69.1 °F - 64.0 °F 84% 29.99 in 9.0 mi NNE 5.8 mph - N/A   Mostly Cloudy
8:53 AM 72.0 °F - 64.0 °F 76% 30.01 in 10.0 mi NNE 4.6 mph - N/A   Scattered Clouds
9:53 AM 75.0 °F - 64.9 °F 71% 30.02 in 10.0 mi NE 6.9 mph - N/A   Scattered Clouds
10:53 AM 77.0 °F - 66.0 °F 69% 30.02 in 10.0 mi Variable 4.6 mph - N/A   Mostly Cloudy
11:53 AM 80.1 °F 82.1 °F 66.0 °F 62% 30.03 in 10.0 mi ENE 6.9 mph - N/A   Mostly Cloudy
12:53 PM 82.0 °F 84.5 °F 66.9 °F 60% 30.02 in 10.0 mi NNE 6.9 mph - N/A   Scattered Clouds
1:53 PM 84.0 °F 86.5 °F 66.9 °F 56% 30.01 in 10.0 mi NE 5.8 mph - N/A   Scattered Clouds
2:53 PM 84.0 °F 86.3 °F 66.0 °F 55% 30.00 in 10.0 mi East 3.5 mph - N/A   Mostly Cloudy
3:35 PM 82.4 °F 84.6 °F 66.2 °F 58% 30.02 in 10.0 mi Calm Calm - 0.00 in Thunderstorm Thunderstorm
3:53 PM 80.1 °F 82.3 °F 66.9 °F 64% 30.00 in 10.0 mi NW 9.2 mph - 0.00 in Thunderstorm Thunderstorm
4:53 PM 77.0 °F - 66.0 °F 69% 29.99 in 10.0 mi NNW 6.9 mph - N/A Thunderstorm Thunderstorm
5:09 PM 75.2 °F - 66.2 °F 73% 30.04 in 2.0 mi Variable 4.6 mph - 0.00 in Rain , Thunderstorm Thunderstorms and Rain
5:11 PM 73.4 °F - 68.0 °F 83% 30.04 in 1.0 mi Variable 3.5 mph - 0.00 in Rain , Thunderstorm Heavy Thunderstorms and Rain
5:14 PM 73.4 °F - 68.0 °F 83% 30.04 in 1.5 mi West 9.2 mph - 0.06 in Rain , Thunderstorm Heavy Thunderstorms and Rain
5:17 PM 75.2 °F - 66.2 °F 73% 30.03 in 3.0 mi WSW 8.1 mph - 0.10 in Rain , Thunderstorm Light Thunderstorms and Rain
5:20 PM 75.2 °F - 66.2 °F 73% 30.05 in 1.5 mi West 6.9 mph - 0.11 in Rain , Thunderstorm Thunderstorms and Rain
5:24 PM 73.4 °F - 64.4 °F 73% 30.03 in 5.0 mi West 12.7 mph 20.7 mph 0.14 in Rain , Thunderstorm Light Thunderstorms and Rain
5:26 PM 75.2 °F - 62.6 °F 65% 30.03 in 2.0 mi SW 8.1 mph 20.7 mph 0.16 in Rain , Thunderstorm Thunderstorms and Rain
5:31 PM 75.2 °F - 64.4 °F 69% 30.02 in 4.0 mi West 6.9 mph 20.7 mph 0.16 in Rain , Thunderstorm Light Thunderstorms and Rain
5:53 PM 73.0 °F - 66.9 °F 81% 30.00 in 10.0 mi NW 8.1 mph - 0.46 in Thunderstorm Thunderstorm
6:01 PM 73.4 °F - 68.0 °F 83% 30.03 in 10.0 mi NW 5.8 mph - N/A   Mostly Cloudy
6:53 PM 75.0 °F - 70.0 °F 84% 30.01 in 10.0 mi Calm Calm - N/A   Mostly Cloudy
7:53 PM 75.9 °F - 70.0 °F 82% 30.01 in 10.0 mi ENE 3.5 mph - N/A   Mostly Cloudy
8:53 PM 73.9 °F - 68.0 °F 82% 30.03 in 10.0 mi Calm Calm - N/A   Mostly Cloudy
9:53 PM 75.0 °F - 66.0 °F 73% 30.04 in 10.0 mi Calm Calm - N/A   Mostly Cloudy
10:53 PM 73.9 °F - 66.9 °F 79% 30.05 in 10.0 mi Calm Calm - N/A   Mostly Cloudy
11:53 PM 71.1 °F - 68.0 °F 90% 30.05 in 10.0 mi Calm Calm - N/A   Scattered Clouds